Location: Unspecified
(38.9820°N, 94.4650°W)
Time: 01:38:15
(UTC-06:00)

HST - Visible Passes

Search period start: 26 November 2014 00:00
Search period end: 06 December 2014 00:00
Orbit: 545 x 550 km, 28.5° (Epoch: 24 November)

Date Brightness Start Highest point End Pass type
(mag) Time Alt. Az. Time Alt. Az. Time Alt. Az.
26 Nov 3.1 04:45:40 18° SSE 04:45:40 18° SSE 04:47:43 10° SE visible
26 Nov 3.1 06:22:50 10° SW 06:25:32 17° S 06:28:13 10° SSE visible
27 Nov 3.3 04:38:39 16° SSE 04:38:39 16° SSE 04:40:08 10° SE visible
27 Nov 3.1 06:15:27 10° SW 06:17:52 15° SSW 06:20:17 10° SSE visible
28 Nov 3.5 04:31:36 14° SE 04:31:36 14° SE 04:32:28 10° SE visible
28 Nov 3.2 06:08:12 10° SW 06:10:12 13° SSW 06:12:11 10° SSE visible
29 Nov 3.8 04:24:32 11° SE 04:24:32 11° SE 04:24:45 10° SE visible
29 Nov 3.3 06:01:16 10° SW 06:02:30 11° SSW 06:03:44 10° S visible
